Rome, GA

6:41 PM EST on November 15, 2019 (GMT -0500)
Russell

Weather History for KRMG - September, 2019

Change the Weather History Date:

Tuesday, September 10, 2019

  Actual Average Record
Temperature  
Mean Temperature 82 °F 74 °F  
Max Temperature 98 °F 86 °F 102 °F (2002)
Min Temperature 67 °F 62 °F 7 °F (1996)
Degree Days  
Heating Degree Days 0 0  
Month to date heating degree days 0 0  
Since 1 July heating degree days 0 0  
Cooling Degree Days 18 9  
Month to date cooling degree days 157 102  
Year to date cooling degree days 1916 1468  
Growing Degree Days 32 (Base 50)    
Moisture  
Dew Point 68 °F    
Average Humidity 68    
Maximum Humidity 91    
Minimum Humidity 35    
Precipitation  
Precipitation T in 0.11 in 1.16 in (2018)
Month to date precipitation T 0.94  
Year to date precipitation 42.45 36.36  
Sea Level Pressure  
Sea Level Pressure 30.18 in    
Wind  
Wind Speed 3 mph ()    
Max Wind Speed 22 mph    
Max Gust Speed 32 mph    
Visibility 9.5 miles    
Events Rain , Thunderstorm    
T = Trace of Precipitation, MM = Missing Value Source: Averaged Metar Reports

Daily Weather History Graph

Daily Weather History Graph

Search for Another Location

Airport or City:

Astronomy

Sep. 10, 2019 Rise Set
Actual Time 7:20 AM EDT 7:54 PM EDT
Civil Twilight 6:54 AM EDT 8:19 PM EDT
Nautical Twilight 6:25 AM EDT 8:49 PM EDT
Astronomical Twilight 5:54 AM EDT 9:19 PM EDT
Moon 6:20 PM EDT (9/10) 3:56 AM EDT (9/10)
Length of Visible Light 13h 25m
Length of Day
12h 34m
Waxing Gibbous, 89% of the Moon is Illuminated
Sep 10
Waxing Gibbous
Sep 14
Full
Sep 21
Last Quarter
Sep 28
New
Oct 5
First Quarter

Hourly Weather History & Observations

Time (EDT) Temp. Heat Index Dew Point Humidity Pressure Visibility Wind Dir Wind Speed Gust Speed Precip Events Conditions
12:53 AM 73.9 °F - 64.9 °F 73% 30.12 in 10.0 mi Calm Calm - N/A   Clear
1:53 AM 73.0 °F - 64.9 °F 76% 30.13 in 10.0 mi NNE 3.5 mph - N/A   Clear
2:53 AM 70.0 °F - 64.9 °F 84% 30.14 in 10.0 mi Calm Calm - N/A   Clear
3:53 AM 70.0 °F - 64.0 °F 81% 30.14 in 9.0 mi NNE 3.5 mph - N/A   Clear
4:53 AM 69.1 °F - 64.9 °F 87% 30.14 in 10.0 mi Calm Calm - N/A   Clear
5:53 AM 68.0 °F - 64.0 °F 87% 30.15 in 10.0 mi Calm Calm - N/A   Clear
6:53 AM 68.0 °F - 64.0 °F 87% 30.17 in 10.0 mi Calm Calm - N/A   Clear
7:53 AM 68.0 °F - 64.9 °F 90% 30.19 in 9.0 mi Calm Calm - N/A   Clear
8:53 AM 75.0 °F - 66.0 °F 73% 30.21 in 10.0 mi Calm Calm - N/A   Clear
9:53 AM 80.1 °F 82.7 °F 68.0 °F 67% 30.22 in 10.0 mi NE 3.5 mph - N/A   Clear
10:53 AM 84.9 °F 89.4 °F 70.0 °F 61% 30.22 in 10.0 mi Calm Calm - N/A   Clear
11:53 AM 90.0 °F 96.4 °F 71.1 °F 54% 30.22 in 10.0 mi NE 5.8 mph - N/A   Clear
12:53 PM 91.9 °F 98.4 °F 71.1 °F 50% 30.21 in 10.0 mi NW 3.5 mph - N/A   Clear
1:53 PM 95.0 °F 102.5 °F 71.1 °F 46% 30.19 in 10.0 mi Variable 4.6 mph - N/A   Scattered Clouds
2:53 PM 93.9 °F 99.1 °F 69.1 °F 44% 30.17 in 10.0 mi Calm Calm - N/A   Partly Cloudy
3:53 PM 97.0 °F 102.2 °F 68.0 °F 39% 30.14 in 10.0 mi Variable 4.6 mph - N/A   Partly Cloudy
4:53 PM 96.1 °F 98.8 °F 64.9 °F 36% 30.12 in 10.0 mi SE 3.5 mph - N/A   Partly Cloudy
5:53 PM 93.0 °F 97.9 °F 69.1 °F 45% 30.12 in 10.0 mi WNW 5.8 mph - N/A Thunderstorm Mostly Cloudy
6:04 PM 93.9 °F 100.3 °F 70.0 °F 46% 30.15 in 10.0 mi West 6.9 mph - N/A Thunderstorm Thunderstorm
6:19 PM 91.9 °F 96.9 °F 69.1 °F 47% 30.16 in 2.5 mi NE 12.7 mph 17.3 mph N/A Thunderstorm Unknown
6:28 PM 90.0 °F 92.4 °F 66.0 °F 45% 30.17 in 10.0 mi East 10.4 mph - N/A Thunderstorm Thunderstorm
6:53 PM 77.0 °F - 66.9 °F 71% 30.17 in 7.0 mi ESE 20.7 mph 31.1 mph 0.02 in Rain , Thunderstorm Thunderstorms and Rain
8:14 PM 75.0 °F - - N/A% 30.20 in - North 5.8 mph - N/A Thunderstorm Thunderstorm
8:53 PM 73.9 °F - 71.1 °F 91% 30.20 in 10.0 mi Calm Calm - N/A Thunderstorm Mostly Cloudy
9:53 PM 75.0 °F - 72.0 °F 90% 30.23 in 9.0 mi North 6.9 mph - N/A Thunderstorm Mostly Cloudy
10:04 PM 75.9 °F - 71.1 °F 85% 30.28 in 9.0 mi North 10.4 mph - N/A   Mostly Cloudy
10:11 PM 75.0 °F - 71.1 °F 87% 30.28 in 10.0 mi NNW 9.2 mph - N/A Thunderstorm Mostly Cloudy
10:32 PM 75.9 °F - 69.1 °F 79% 30.26 in 10.0 mi North 9.2 mph - 0.00 in   Scattered Clouds
11:53 PM 73.9 °F - 70.0 °F 87% 30.21 in 10.0 mi ESE 3.5 mph - N/A   Clear